(°C)
11°
13°
15°
16°
(°C)
10°
12°
12°
ΝΔ
ΝΝΔ
ΝΔ
ΔΝΔ
ΝΔ
ΝΝΔ
ΝΝΔ
(χλμ / ω)
7-10
7-11
5-12
8-15
10-17
12-21
15-24
(χιλιοστά)
0
0
0
0
0
0
0
(%)
0
0
0
0
0
0
7

Ανύψωση ήλιου

/ 2.9°
sun-icon
UV 2
07:24
19:26
Φθίνων αμφίκυρτος (φάση σελήνης) (242°)
21:34
13:12

METAR για 51.15°Β 51.54°Α (UARR)

Χρόνος Συνθήκες Θερμοκρασία/
Σημείο δρόσου
Άνεμος Ορατότητα Καιρός Νέφη Πίεση Αλλαγή Ανεπεξέργαστο
MVFR 3°C / 3°C 240º 4kt 5000m Mist Vertical Visibility of 0ft. 1011 No Significant change UARR 260200Z 24002MPS 5000 BR NSC 03/03 Q1011 R22/CLRD70 NOSIG RMK QFE754/1006
MVFR 4°C / 4°C 220º 8kt 6000m - Clear 1011 No Significant change UARR 260130Z 22004MPS 6000 NSC 04/04 Q1011 R22/CLRD70 NOSIG RMK QFE755/1006
VFR 4°C / 3°C 210º 6kt 9000m - Clear 1011 No Significant change UARR 260100Z 21003MPS 9000 NSC 04/03 Q1011 R22/CLRD70 NOSIG RMK QFE754/1006
MVFR 4°C / 4°C 210º 4kt 8000m - Clear 1011 No Significant change UARR 260030Z 21002MPS 8000 NSC 04/04 Q1011 R22/CLRD70 NOSIG RMK QFE754/1006
MVFR 4°C / 4°C 210º 6kt 4900m Mist Vertical Visibility of 0ft. 1011 No Significant change UARR 260000Z 21003MPS 4900 BR NSC 04/04 Q1011 R22/CLRD70 NOSIG RMK QFE754/1006
MVFR 4°C / 4°C 230º 4kt 6000m - Clear 1011 No Significant change UARR 252330Z 23002MPS 6000 NSC 04/04 Q1011 R22/CLRD70 NOSIG RMK QFE754/1006
IFR 5°C / 5°C 240º 2kt 4800m Mist Vertical Visibility of 0ft. 1011 No Significant change UARR 252300Z 24001MPS 4800 BR NSC 05/05 Q1011 R22/CLRD70 NOSIG RMK QFE754/1006
IFR 6°C / 6°C 290º 4kt 3500m Mist Vertical Visibility of 0ft. 1011 No Significant change UARR 252217Z 29002MPS 3500 BR NSC 06/06 Q1011 R22/CLRD70 NOSIG RMK QFE754/1006
VFR 7°C / 6°C 280º 4kt >10km - Clouds and Visibility OK 1011 No Significant change UARR 252200Z 28002MPS CAVOK 07/06 Q1011 R22/CLRD70 NOSIG RMK QFE754/1006
VFR 8°C / 7°C 280º 6kt >10km - Clouds and Visibility OK 1011 No Significant change UARR 252100Z 28003MPS CAVOK 08/07 Q1011 R22/CLRD70 NOSIG RMK QFE754/1006
VFR 7°C / 7°C 260º 4kt >10km - Clouds and Visibility OK 1011 No Significant change UARR 252030Z 26002MPS CAVOK 07/07 Q1011 R22/CLRD70 NOSIG RMK QFE754/1006
VFR 8°C / 7°C 270º 6kt >10km - Clouds and Visibility OK 1011 No Significant change UARR 252000Z 27003MPS CAVOK 08/07 Q1011 R22/CLRD70 NOSIG RMK QFE754/1006
VFR 8°C / 7°C 280º 8kt >10km - Clouds and Visibility OK 1011 No Significant change UARR 251930Z 28004MPS CAVOK 08/07 Q1011 R22/CLRD70 NOSIG RMK QFE754/1006
VFR 9°C / 8°C 270º 8kt >10km - Clouds and Visibility OK 1011 No Significant change UARR 251900Z 27004MPS CAVOK 09/08 Q1011 R22/CLRD70 NOSIG RMK QFE754/1006
VFR 10°C / 8°C 270º 8kt >10km - Clouds and Visibility OK 1011 No Significant change UARR 251830Z 27004MPS CAVOK 10/08 Q1011 R22/CLRD70 NOSIG RMK QFE754/1006
VFR 9°C / 7°C 260º 6kt >10km - Clouds and Visibility OK 1011 No Significant change UARR 251800Z 26003MPS CAVOK 09/07 Q1011 R22/CLRD70 NOSIG RMK QFE754/1006
VFR 10°C / 8°C 290º 8kt >10km - Clouds and Visibility OK 1011 No Significant change UARR 251730Z 29004MPS CAVOK 10/08 Q1011 R22/CLRD70 NOSIG RMK QFE754/1006
VFR 10°C / 7°C 280º 6kt >10km - Clouds and Visibility OK 1010 No Significant change UARR 251700Z 28003MPS CAVOK 10/07 Q1010 R22/CLRD70 NOSIG RMK QFE754/1006
VFR 12°C / 7°C 290º 6kt >10km - Clouds and Visibility OK 1010 No Significant change UARR 251630Z 29003MPS CAVOK 12/07 Q1010 R22/CLRD70 NOSIG RMK QFE754/1005
VFR 12°C / 7°C 300º 6kt >10km - Clouds and Visibility OK 1010 No Significant change UARR 251600Z 30003MPS CAVOK 12/07 Q1010 R22/CLRD70 NOSIG RMK QFE754/1005
VFR 13°C / 7°C 300º 8kt >10km - Clouds and Visibility OK 1010 No Significant change UARR 251530Z 30004MPS CAVOK 13/07 Q1010 R22/CLRD70 NOSIG RMK QFE754/1006
VFR 14°C / 7°C 300º 10kt >10km - Clouds and Visibility OK 1010 No Significant change UARR 251500Z 30005MPS CAVOK 14/07 Q1010 R22/CLRD70 NOSIG RMK QFE754/1005
VFR 14°C / 7°C 290º 10kt >10km - Clouds and Visibility OK 1010 No Significant change UARR 251430Z 29005MPS CAVOK 14/07 Q1010 R22/CLRD70 NOSIG RMK QFE754/1005
VFR 14°C / 7°C 300º 10kt >10km - Clouds and Visibility OK 1010 No Significant change UARR 251400Z 30005MPS CAVOK 14/07 Q1010 R22/CLRD70 NOSIG RMK QFE754/1005

MVFR

3°C / 3°C

[Περισσότερο]
Άνεμος 240º 4kt
Ορατότητα 5000m
Καιρός Mist
Νέφη Vertical Visibility of 0ft.
Πίεση 1011
Αλλαγή No Significant change
Ανεπεξέργαστο UARR 260200Z 24002MPS 5000 BR NSC 03/03 Q1011 R22/CLRD70 NOSIG RMK QFE754/1006

MVFR

4°C / 4°C

[Περισσότερο]
Άνεμος 220º 8kt
Ορατότητα 6000m
Καιρός -
Νέφη Clear
Πίεση 1011
Αλλαγή No Significant change
Ανεπεξέργαστο UARR 260130Z 22004MPS 6000 NSC 04/04 Q1011 R22/CLRD70 NOSIG RMK QFE755/1006

VFR

4°C / 3°C

[Περισσότερο]
Άνεμος 210º 6kt
Ορατότητα 9000m
Καιρός -
Νέφη Clear
Πίεση 1011
Αλλαγή No Significant change
Ανεπεξέργαστο UARR 260100Z 21003MPS 9000 NSC 04/03 Q1011 R22/CLRD70 NOSIG RMK QFE754/1006

MVFR

4°C / 4°C

[Περισσότερο]
Άνεμος 210º 4kt
Ορατότητα 8000m
Καιρός -
Νέφη Clear
Πίεση 1011
Αλλαγή No Significant change
Ανεπεξέργαστο UARR 260030Z 21002MPS 8000 NSC 04/04 Q1011 R22/CLRD70 NOSIG RMK QFE754/1006

MVFR

4°C / 4°C

[Περισσότερο]
Άνεμος 210º 6kt
Ορατότητα 4900m
Καιρός Mist
Νέφη Vertical Visibility of 0ft.
Πίεση 1011
Αλλαγή No Significant change
Ανεπεξέργαστο UARR 260000Z 21003MPS 4900 BR NSC 04/04 Q1011 R22/CLRD70 NOSIG RMK QFE754/1006

MVFR

4°C / 4°C

[Περισσότερο]
Άνεμος 230º 4kt
Ορατότητα 6000m
Καιρός -
Νέφη Clear
Πίεση 1011
Αλλαγή No Significant change
Ανεπεξέργαστο UARR 252330Z 23002MPS 6000 NSC 04/04 Q1011 R22/CLRD70 NOSIG RMK QFE754/1006

IFR

5°C / 5°C

[Περισσότερο]
Άνεμος 240º 2kt
Ορατότητα 4800m
Καιρός Mist
Νέφη Vertical Visibility of 0ft.
Πίεση 1011
Αλλαγή No Significant change
Ανεπεξέργαστο UARR 252300Z 24001MPS 4800 BR NSC 05/05 Q1011 R22/CLRD70 NOSIG RMK QFE754/1006

IFR

6°C / 6°C

[Περισσότερο]
Άνεμος 290º 4kt
Ορατότητα 3500m
Καιρός Mist
Νέφη Vertical Visibility of 0ft.
Πίεση 1011
Αλλαγή No Significant change
Ανεπεξέργαστο UARR 252217Z 29002MPS 3500 BR NSC 06/06 Q1011 R22/CLRD70 NOSIG RMK QFE754/1006

VFR

7°C / 6°C

[Περισσότερο]
Άνεμος 280º 4kt
Ορατότητα >10km
Καιρός -
Νέφη Clouds and Visibility OK
Πίεση 1011
Αλλαγή No Significant change
Ανεπεξέργαστο UARR 252200Z 28002MPS CAVOK 07/06 Q1011 R22/CLRD70 NOSIG RMK QFE754/1006

VFR

8°C / 7°C

[Περισσότερο]
Άνεμος 280º 6kt
Ορατότητα >10km
Καιρός -
Νέφη Clouds and Visibility OK
Πίεση 1011
Αλλαγή No Significant change
Ανεπεξέργαστο UARR 252100Z 28003MPS CAVOK 08/07 Q1011 R22/CLRD70 NOSIG RMK QFE754/1006

VFR

7°C / 7°C

[Περισσότερο]
Άνεμος 260º 4kt
Ορατότητα >10km
Καιρός -
Νέφη Clouds and Visibility OK
Πίεση 1011
Αλλαγή No Significant change
Ανεπεξέργαστο UARR 252030Z 26002MPS CAVOK 07/07 Q1011 R22/CLRD70 NOSIG RMK QFE754/1006

VFR

8°C / 7°C

[Περισσότερο]
Άνεμος 270º 6kt
Ορατότητα >10km
Καιρός -
Νέφη Clouds and Visibility OK
Πίεση 1011
Αλλαγή No Significant change
Ανεπεξέργαστο UARR 252000Z 27003MPS CAVOK 08/07 Q1011 R22/CLRD70 NOSIG RMK QFE754/1006

VFR

8°C / 7°C

[Περισσότερο]
Άνεμος 280º 8kt
Ορατότητα >10km
Καιρός -
Νέφη Clouds and Visibility OK
Πίεση 1011
Αλλαγή No Significant change
Ανεπεξέργαστο UARR 251930Z 28004MPS CAVOK 08/07 Q1011 R22/CLRD70 NOSIG RMK QFE754/1006

VFR

9°C / 8°C

[Περισσότερο]
Άνεμος 270º 8kt
Ορατότητα >10km
Καιρός -
Νέφη Clouds and Visibility OK
Πίεση 1011
Αλλαγή No Significant change
Ανεπεξέργαστο UARR 251900Z 27004MPS CAVOK 09/08 Q1011 R22/CLRD70 NOSIG RMK QFE754/1006

VFR

10°C / 8°C

[Περισσότερο]
Άνεμος 270º 8kt
Ορατότητα >10km
Καιρός -
Νέφη Clouds and Visibility OK
Πίεση 1011
Αλλαγή No Significant change
Ανεπεξέργαστο UARR 251830Z 27004MPS CAVOK 10/08 Q1011 R22/CLRD70 NOSIG RMK QFE754/1006

VFR

9°C / 7°C

[Περισσότερο]
Άνεμος 260º 6kt
Ορατότητα >10km
Καιρός -
Νέφη Clouds and Visibility OK
Πίεση 1011
Αλλαγή No Significant change
Ανεπεξέργαστο UARR 251800Z 26003MPS CAVOK 09/07 Q1011 R22/CLRD70 NOSIG RMK QFE754/1006

VFR

10°C / 8°C

[Περισσότερο]
Άνεμος 290º 8kt
Ορατότητα >10km
Καιρός -
Νέφη Clouds and Visibility OK
Πίεση 1011
Αλλαγή No Significant change
Ανεπεξέργαστο UARR 251730Z 29004MPS CAVOK 10/08 Q1011 R22/CLRD70 NOSIG RMK QFE754/1006

VFR

10°C / 7°C

[Περισσότερο]
Άνεμος 280º 6kt
Ορατότητα >10km
Καιρός -
Νέφη Clouds and Visibility OK
Πίεση 1010
Αλλαγή No Significant change
Ανεπεξέργαστο UARR 251700Z 28003MPS CAVOK 10/07 Q1010 R22/CLRD70 NOSIG RMK QFE754/1006

VFR

12°C / 7°C

[Περισσότερο]
Άνεμος 290º 6kt
Ορατότητα >10km
Καιρός -
Νέφη Clouds and Visibility OK
Πίεση 1010
Αλλαγή No Significant change
Ανεπεξέργαστο UARR 251630Z 29003MPS CAVOK 12/07 Q1010 R22/CLRD70 NOSIG RMK QFE754/1005

VFR

12°C / 7°C

[Περισσότερο]
Άνεμος 300º 6kt
Ορατότητα >10km
Καιρός -
Νέφη Clouds and Visibility OK
Πίεση 1010
Αλλαγή No Significant change
Ανεπεξέργαστο UARR 251600Z 30003MPS CAVOK 12/07 Q1010 R22/CLRD70 NOSIG RMK QFE754/1005

VFR

13°C / 7°C

[Περισσότερο]
Άνεμος 300º 8kt
Ορατότητα >10km
Καιρός -
Νέφη Clouds and Visibility OK
Πίεση 1010
Αλλαγή No Significant change
Ανεπεξέργαστο UARR 251530Z 30004MPS CAVOK 13/07 Q1010 R22/CLRD70 NOSIG RMK QFE754/1006

VFR

14°C / 7°C

[Περισσότερο]
Άνεμος 300º 10kt
Ορατότητα >10km
Καιρός -
Νέφη Clouds and Visibility OK
Πίεση 1010
Αλλαγή No Significant change
Ανεπεξέργαστο UARR 251500Z 30005MPS CAVOK 14/07 Q1010 R22/CLRD70 NOSIG RMK QFE754/1005

VFR

14°C / 7°C

[Περισσότερο]
Άνεμος 290º 10kt
Ορατότητα >10km
Καιρός -
Νέφη Clouds and Visibility OK
Πίεση 1010
Αλλαγή No Significant change
Ανεπεξέργαστο UARR 251430Z 29005MPS CAVOK 14/07 Q1010 R22/CLRD70 NOSIG RMK QFE754/1005

VFR

14°C / 7°C

[Περισσότερο]
Άνεμος 300º 10kt
Ορατότητα >10km
Καιρός -
Νέφη Clouds and Visibility OK
Πίεση 1010
Αλλαγή No Significant change
Ανεπεξέργαστο UARR 251400Z 30005MPS CAVOK 14/07 Q1010 R22/CLRD70 NOSIG RMK QFE754/1005

TAF για 51.15°Β 51.54°Α (UARR)

From till


From till Wind 230º 10kt. Visibility 10km or more. Scattered Clouds 3300ft.
Temporarly from till Wind variable 4kt. Visibility 3100m. Mist . Scattered Clouds 1100ft.
Temporarly from till Wind 190º 10kt. Gust 19kt. Broken Clouds 3000ft.

Ανεπεξέργαστο: TAF UARR 260200Z 2603/2612 23005MPS 9999 SCT033 TEMPO 2603/2606 VRB02MPS 3100 BR SCT011 TEMPO 2606/2612 19005G10MPS BKN030CB

Τρέχουσες εικόνες δορυφόρου και βροχής για 51.15°Β 51.54°Α

Η ένδειξη τοποθεσίας τοποθετείται στο 51.15°Β 51.54°Α. [Περισσότερο]

Οι δορυφορικές εικόνες σε πραγματικό χρόνο συνδυάζουν ορατό φως κατά τη διάρκεια της ημέρας με υπέρυθρη ακτινοβολία κατά τη διάρκεια της νύχτας. Κατά τη διάρκεια της νύχτας, η εικόνα δεν είναι σκοτεινή μιας και η υπέρυθρη ακτινοβολία μπορεί να εντοπίσει τις διαφορές στη θερμοκρασία. Δυστυχώς, είναι δύσκολο να ξεχωρίσουν οι χαμηλές νεφώσεις και η ομίχλη από τις θερμοκρασίες εδάφους και έτσι μπορεί να είναι σχετικά αόρατα κατά τη διάρκεια της νύχτας. Οι εικόνες από τον δορυφόρο Meteosat για την Ευρώπη ενημερώνονται σε πραγματικό χρόνο κάθε 5 λεπτά. Οι εικόνες από τους δορυφόρους GOES-16/GOES-17 (Βόρεια & Λατινική Αμερική) και Himawari (Ασία) ενημερώνονται κάθε 10 λεπτά.

Πνευματική ιδιοκτησία 2021 EUMETSAT / meteoblue. / Πνευματική ιδιοκτησία 2021 meteoblue

Ραντάρ και πρόγνωση υετού μικρής δειάρκειας για 51.15°Β 51.54°Α

Ψιλοβρέχει
Φως
Μέτρια
Βαριά
Πολύ βαρύ
Χαλάζι

Ο δείκτης θέσης τοποθετείται στο 51.15°Β 51.54°Α. Αυτή η κινούμενη εικόνα δείχνει την ραντάρ βροχόπτωσης για την τελευταία ώρα, καθώς και 1πρόγνωση h. Το ψιλόβροχο ή το ελαφρύ χιόνι μπορεί να είναι αόρατο για το ραντάρ. Η ένταση της βροχόπτωσης είναι χρωματικά κωδικοποιημένη και κυμαίνεται από γαλάζιο έως πορτοκαλί.